Location: Goettingen
(51.5300°N, 9.9433°E)
Time: 19:01:11
(UTC+02:00)

ISS - Pass Details

Date: 13 May 2026
Orbit: 414 x 424 km, 51.6° (Epoch: 13 May)

Event Time Altitude Azimuth Distance (km) Brightness Sun altitude
Rises 01:44:08 0° 284° (WNW) 2,357 0.1 -19.9°
Reaches altitude 10° 01:46:19 10° 276° (W) 1,493 -1.0 -19.8°
Enters shadow 01:46:22 10° 275° (W) 1,473 -1.0 -19.8°
